Probability
4 5 7 8 10 13 16 15 13 13 13 11 10 9 6 4 3 3 3 3 3 3 2 1 0 0 0 0 0 0 0 0 0 0 0 0 0 0 0 0 0 0 0
5 6 9 10 12 14 16 15 14 14 13 12 10 9 7 5 4 3 3 3 3 3 3 1 1 1 1 1 0 0 0 0 0 0 0 0 0 0 0 0 0 0 0
6 7 11 13 14 15 16 16 16 16 14 12 11 10 9 8 6 4 4 4 3 3 3 3 2 2 2 2 1 0 0 0 0 0 0 0 0 0 0 0 0 0 0
8 9 11 13 15 16 16 17 18 18 15 12 11 10 10 9 7 6 6 5 4 4 3 3 3 3 3 2 1 0 0 0 0 0 0 0 0 0 0 0 0 0 0
11 11 12 14 16 17 16 17 18 18 16 13 12 11 10 9 8 7 6 6 5 4 4 3 3 3 2 1 0 0 0 0 0 0 0 0 0 0 0 0 0 0 0
13 13 14 17 19 19 19 18 19 18 16 14 13 11 9 9 8 7 6 5 4 4 3 3 3 3 2 0 0 0 0 0 0 0 0 0 0 0 0 0 0 0 0
17 15 16 19 23 24 24 22 20 18 16 14 13 11 9 7 7 7 6 4 3 3 3 3 3 2 1 0 0 0 0 0 0 0 0 0 0 0 0 0 0 0 0
20 19 18 21 24 27 26 24 21 19 17 14 13 12 9 7 7 6 6 5 4 3 3 3 1 1 1 0 0 0 0 0 0 0 0 0 0 0 0 0 0 0 0
22 22 22 22 23 24 24 23 21 20 17 14 14 13 11 8 7 6 6 6 4 3 3 3 1 0 0 0 0 0 0 0 0 0 0 0 0 0 0 0 0 1 1
20 22 23 22 20 19 20 20 20 19 17 15 14 12 10 8 7 7 7 6 5 4 3 3 2 1 1 0 0 0 0 0 0 0 0 0 0 0 0 1 2 3 4
18 19 19 19 18 17 17 18 18 16 15 14 11 10 8 7 6 5 6 6 6 5 4 3 3 1 1 0 0 0 0 0 0 0 0 0 0 0 0 1 3 4 5
16 16 16 16 17 16 15 16 15 13 11 10 8 7 6 4 3 2 3 5 5 5 4 3 3 2 1 0 0 0 0 0 0 0 0 0 0 0 0 1 3 4 4
13 14 14 14 16 16 15 15 14 11 8 7 6 4 4 3 1 0 1 2 3 3 3 3 3 2 1 0 0 0 0 0 0 0 0 0 0 0 0 1 2 3 3
10 11 12 12 14 15 14 15 14 10 6 5 4 4 3 3 1 0 0 0 1 1 1 2 3 2 1 0 0 0 0 0 0 0 0 0 0 0 0 1 2 3 3
7 8 9 10 11 12 13 14 13 9 5 4 4 4 4 4 3 1 0 0 0 0 1 1 2 2 1 0 0 0 0 0 0 0 0 0 0 0 0 1 2 3 3
4 5 7 9 10 9 9 11 11 9 6 4 4 3 4 4 3 1 0 0 0 0 1 2 2 2 1 0 0 0 0 0 0 0 0 0 0 1 1 2 3 3 3
2 4 6 8 9 8 7 9 10 10 7 4 2 3 3 4 3 2 1 1 1 1 1 1 1 1 0 0 0 0 0 0 0 0 0 0 0 1 2 3 3 3 3
3 4 6 7 7 8 7 9 10 11 8 4 1 1 2 3 3 3 3 2 2 2 1 0 0 0 0 0 0 0 0 0 0 0 0 0 0 0 1 3 3 3 3
3 4 6 6 6 6 8 8 9 9 8 4 1 1 1 1 2 3 3 3 3 3 1 0 0 0 0 0 0 0 0 0 0 0 0 0 0 0 1 2 3 3 3
3 4 5 6 6 6 7 8 7 7 6 4 2 1 0 0 1 2 3 3 3 3 2 1 0 0 0 0 0 0 0 0 0 0 0 0 0 0 0 1 1 2 2
1 2 4 5 6 6 6 7 6 5 5 4 2 0 0 0 0 1 2 3 3 3 3 2 1 1 0 0 0 0 0 0 0 0 0 0 0 0 0 0 0 1 1
1 2 4 5 6 6 6 5 5 4 4 3 2 1 1 1 0 0 1 1 2 3 3 3 3 1 0 0 0 0 0 0 0 0 0 0 0 0 0 0 0 0 0
1 3 5 6 6 6 6 5 4 4 3 3 3 2 2 2 1 0 0 0 1 2 3 4 4 1 0 0 0 0 0 0 0 0 0 0 0 0 0 0 0 0 0
2 4 6 6 6 6 6 6 5 4 4 4 3 3 3 3 2 0 0 0 0 1 2 4 4 1 0 0 0 0 0 0 0 0 0 0 0 0 0 0 0 0 0
2 5 6 6 6 6 6 6 6 5 4 5 4 3 3 2 1 0 0 0 0 0 1 2 2 1 0 0 0 0 0 0 0 0 0 0 0 0 0 0 0 0 0
2 5 6 6 6 6 6 6 5 4 4 5 5 3 2 1 0 0 0 0 0 0 0 1 1 0 0 0 0 0 0 0 0 0 0 0 0 0 0 0 0 0 0
Wind_Speed
4 6 10 10 11 11 11 12 12 12 12 12 12 12 12 12 12 12 11 12 12 12 12 12 13 13 13 13 13 13 13 13 13 13 13 13 13 13 13 13 11 7 13
8 8 11 11 11 11 11 11 12 12 12 12 12 12 12 12 11 11 11 11 11 11 12 12 12 12 12 12 12 13 13 12 12 12 12 11 12 12 12 11 11 8 12
9 8 10 11 11 10 11 11 11 11 12 12 11 11 11 11 11 11 11 11 10 11 11 11 11 11 11 11 11 12 11 11 11 11 10 5 6 11 11 11 11 12 11
10 8 8 11 11 10 11 11 11 11 11 12 11 11 11 11 11 11 11 10 10 11 11 10 11 10 10 10 11 10 10 10 10 10 5 3 4 9 10 10 10 10 10
9 8 8 11 10 10 10 11 11 11 11 11 11 11 11 11 11 11 10 10 10 10 10 10 10 9 9 10 9 9 10 10 10 7 4 3 3 9 10 10 9 9 9
8 7 8 11 10 9 10 10 10 11 11 11 11 11 11 11 10 10 10 10 10 10 10 9 9 9 9 9 8 8 9 9 8 4 3 3 3 8 8 9 9 8 8
8 7 8 11 10 9 9 9 10 10 10 11 11 10 11 10 11 10 10 10 10 9 9 9 9 8 8 8 8 8 9 9 5 3 3 2 3 7 7 8 8 8 8
9 7 7 10 10 9 9 9 9 9 10 10 10 10 10 10 10 10 10 10 9 9 9 8 8 7 7 7 7 7 7 7 5 3 2 2 5 7 7 7 7 7 7
7 6 6 6 7 8 8 8 8 8 9 10 10 10 9 9 10 10 10 9 9 9 8 8 7 6 6 6 6 6 6 7 3 2 2 1 5 7 6 7 6 6 6
5 5 5 5 5 5 5 6 7 7 9 9 9 8 8 8 9 9 8 8 9 8 7 7 6 6 6 5 5 5 6 5 2 2 1 2 5 6 6 6 5 5 5
5 4 5 5 5 4 4 5 5 6 7 8 8 9 7 4 5 6 6 7 8 8 7 7 6 6 4 4 4 4 4 1 1 1 1 3 5 5 5 5 5 4 5
5 5 4 5 5 5 4 3 3 3 4 4 4 5 4 3 3 5 6 7 7 7 7 6 6 4 3 1 2 3 1 1 1 1 1 4 5 4 4 4 4 4 4
5 5 5 6 6 5 3 3 2 2 2 3 5 5 4 3 3 3 3 3 4 4 3 3 3 1 1 1 1 1 1 1 1 1 1 4 4 4 4 4 3 3 3
4 5 5 5 5 5 4 3 3 2 3 3 4 5 5 3 3 3 2 2 2 2 2 2 1 1 1 1 1 1 1 1 1 1 1 4 4 4 4 4 3 3 3
4 4 4 5 5 5 5 4 4 3 3 3 3 5 5 4 4 4 3 3 3 2 3 3 2 2 1 1 1 1 1 1 1 1 1 2 3 4 4 4 4 3 3
3 4 3 4 5 5 4 4 4 4 4 4 4 5 6 5 5 4 4 4 3 3 3 3 3 3 2 1 1 1 2 2 1 1 1 1 2 3 4 4 4 3 3
3 3 3 4 4 4 4 5 4 4 4 4 4 5 7 6 6 5 5 4 4 4 3 3 2 2 2 1 1 1 2 2 2 1 1 1 1 1 2 4 4 3 3
3 3 3 3 3 4 3 3 3 4 4 4 4 4 6 7 7 6 5 5 5 4 3 3 3 2 2 2 1 1 1 2 2 2 1 1 1 1 2 2 2 3 3
3 3 3 2 3 3 3 3 3 3 4 4 4 4 5 6 7 6 5 5 5 4 4 4 3 3 3 2 2 1 1 2 2 2 2 2 2 2 1 2 3 3 3
3 4 4 3 3 3 2 2 1 2 3 3 4 5 6 6 7 6 5 6 6 5 4 4 4 3 2 2 1 0 1 2 2 2 3 2 2 3 2 2 2 2 3
2 2 4 4 3 3 2 2 3 3 3 3 4 5 6 7 7 6 5 6 6 6 6 6 4 3 2 2 1 1 2 2 2 2 2 2 2 3 3 3 2 1 2
2 3 3 4 4 4 4 3 3 4 3 3 3 5 6 7 7 7 7 6 6 5 6 6 4 3 2 3 3 1 1 2 2 2 2 3 3 2 3 3 3 3 2
1 2 3 3 3 4 3 2 1 0 1 2 3 3 5 6 7 7 8 7 6 6 6 7 6 6 4 3 3 3 3 4 2 2 3 3 2 2 3 3 4 4 3
2 2 2 3 3 3 3 3 4 4 4 4 3 4 4 6 6 6 7 7 6 6 6 6 6 5 5 4 2 2 2 3 2 2 2 2 3 4 4 3 3 4 4
2 1 2 2 3 3 3 4 4 4 3 2 2 4 4 5 6 6 6 6 6 5 6 6 6 5 5 5 4 2 1 1 1 2 3 3 2 3 3 4 4 3 4
3 2 2 2 3 3 3 4 4 4 4 3 3 4 4 4 4 6 6 6 6 5 6 6 6 7 6 5 4 4 3 3 3 3 3 3 3 3 3 3 3 3 3
Wind_Direction
169 172 160 154 145 140 135 132 130 128 127 124 121 119 118 115 112 112 113 112 110 109 107 105 102 99 95 93 91 88 86 82 80 78 79 79 79 79 81 80 78 74 78
158 165 157 153 146 141 137 132 130 129 128 127 126 125 123 121 119 115 113 115 114 112 109 107 104 102 99 97 94 91 89 86 84 80 78 77 80 81 81 84 83 82 81
148 157 157 151 147 142 139 134 130 133 133 131 130 129 127 126 123 119 117 115 115 114 113 111 107 104 103 101 97 93 90 88 88 84 79 63 76 84 83 83 81 79 81
148 152 154 149 148 145 140 138 135 133 134 134 134 131 130 128 125 123 120 117 116 116 116 114 111 108 105 103 99 95 91 91 89 87 69 58 69 85 82 80 81 80 81
146 150 157 148 147 146 142 141 140 137 135 136 136 135 133 129 126 125 123 120 119 118 117 116 115 113 110 108 104 98 94 92 90 83 69 60 66 87 86 82 81 82 83
145 148 154 148 149 147 145 143 143 142 141 139 138 138 136 133 131 128 125 122 122 122 120 118 117 117 115 110 106 102 96 94 89 77 70 67 72 92 90 86 84 85 87
144 146 153 146 149 149 148 147 148 145 145 143 141 141 139 137 135 131 129 128 129 129 125 124 120 119 121 116 112 107 98 100 93 82 74 71 89 97 95 91 88 88 89
143 145 152 147 148 150 149 151 149 152 150 147 145 141 141 140 137 135 136 134 133 133 131 128 126 119 123 119 114 106 99 102 98 94 86 85 107 104 101 98 90 87 91
136 139 146 149 150 147 147 149 153 153 153 149 146 143 140 141 142 140 137 138 137 135 132 129 129 129 126 117 115 107 99 102 97 98 107 114 117 109 106 103 95 87 94
129 139 145 144 144 150 154 149 149 149 152 149 145 142 140 141 144 142 138 140 139 137 136 134 133 135 126 113 109 107 102 98 96 93 98 123 121 118 114 110 101 92 95
139 152 151 148 146 150 155 153 149 152 153 152 149 144 139 139 141 143 140 139 142 140 138 135 135 128 116 107 98 99 99 105 114 104 133 135 133 126 123 120 114 106 97
165 173 165 159 156 153 158 153 155 156 157 156 152 151 146 140 144 143 145 145 144 142 142 140 135 121 96 75 85 82 85 127 123 144 165 150 152 146 139 132 125 120 109
176 178 178 171 163 158 158 153 155 157 156 160 158 157 149 140 144 139 141 148 149 145 138 139 126 103 99 90 83 85 99 125 162 208 178 164 170 167 158 150 141 136 128
173 184 184 176 169 166 161 161 165 168 169 172 175 166 158 156 158 157 156 155 153 149 144 138 136 140 147 156 140 127 134 155 179 203 196 175 180 186 179 172 166 157 143
190 190 187 175 173 170 166 170 173 181 184 184 182 178 170 168 170 167 169 167 168 160 159 158 158 161 177 188 174 148 154 170 170 200 213 182 191 201 199 190 185 178 167
204 199 185 177 177 171 175 178 183 187 185 184 188 187 178 175 174 172 175 174 176 174 171 170 171 171 185 177 181 168 175 183 185 209 215 209 203 212 213 205 197 197 196
209 205 184 180 173 173 182 186 183 189 185 189 196 193 185 179 177 176 179 182 184 179 171 162 163 158 168 175 190 193 184 186 188 206 222 211 224 225 215 215 214 219 226
201 198 189 181 179 183 186 190 189 192 189 192 196 199 195 187 181 177 181 188 184 175 173 172 169 165 178 182 195 212 205 197 198 206 214 209 195 225 244 229 232 237 241
199 196 186 183 187 198 198 192 189 194 198 197 196 200 201 195 186 180 185 188 179 175 178 183 178 173 178 185 191 203 214 215 215 210 208 210 212 203 216 236 243 253 258
195 193 188 190 194 196 194 189 188 206 214 202 202 206 201 196 191 185 184 186 180 177 181 184 179 183 179 175 170 222 257 247 227 212 211 213 221 215 201 208 228 251 258
191 194 195 193 201 189 184 194 197 209 226 219 208 208 205 197 192 188 187 187 187 188 189 185 176 178 177 146 102 349 319 292 248 227 214 206 218 225 204 201 203 219 255
213 209 209 204 198 198 202 203 207 206 213 223 221 213 209 201 195 193 190 191 192 191 189 189 175 172 186 169 145 128 292 304 287 250 227 215 214 215 216 213 207 210 219
258 232 230 226 215 210 210 199 206 215 235 226 230 224 220 208 200 196 195 192 193 193 197 196 189 181 188 201 182 163 172 220 272 277 246 229 216 222 232 224 217 215 215
258 258 260 242 229 221 205 196 195 208 222 231 223 225 227 212 205 199 196 194 194 197 201 203 196 191 178 194 215 213 188 166 175 263 286 260 242 234 233 236 228 220 212
276 263 266 268 253 235 218 210 205 222 232 238 229 226 222 218 210 203 199 194 195 199 201 202 201 196 191 193 193 190 191 206 189 187 251 274 277 251 239 237 231 224 215
329 312 289 282 269 252 233 222 212 218 230 230 233 227 223 219 215 208 202 196 198 201 203 203 205 203 202 199 198 193 185 185 196 193 224 256 267 270 260 245 237 230 223